sat.trackr.live / text

‹ back to catalog

IMECE

NORAD 56178 · 2023-054A

PAYLOAD ACTIVE UNKNOWN

§ Identity

Operator
Country
TURK
Launch date
2023-04-15
Launch site
AFWTR
Launch vehicle
Mass (kg)
RCS (m²)

External: N2YO · Heavens-Above · Gunter

§ Orbital elements

Epoch: 2026-09-21T22:42:29.876832Z

Period
98.23 min
Inclination
98.1110°
Eccentricity
0.0008626
Mean motion
14.65899147 rev/d
Perigee alt
668.1 km
Apogee alt
680.3 km
Semi-major
7,052.3 km
B*
3.1640e-5
RAAN
168.6368°
Arg perigee
219.5312°
Mean anomaly
140.5263°
Rev number
18,458

§ Raw data

IMECE1 56178U 23054A   26264.94617913  .00000125  00000+0  31640-4 0  99962 56178  98.1110 168.6368 0008626 219.5312 140.5263 14.65899147184583

JSON: /api/v1/satellites/56178 · /tle

For live sub-satellite position, see the globe view (requires WebGL).

§ Visibility from observer

Set your observer location to see the next 7 days of passes ≥ 10°. The values pass through the URL so the page stays shareable.

No JS? Fill the form by hand. The geolocation button needs JavaScript.